SAA419 FACT-FAPE

Flight info

Callsign SAA419
Flight time 0h 54m
Altitude 37000
Route OKTED UQ12 XUGOL UQ56 OKSET DCT PEV
Aircraft A20N/M-SDE2E3FGHIRWXY/LB1

Departure

Time 2026-04-26 18:31
Airport Cape Town International Airport (FACT)

Arrival

Time 2026-04-26 19:25
Airport Chief Dawid Stuurman International Airport (FAPE)
Time Latitude Longitude Altitude Speed Heading
2026-04-26 18:05 -33.97144 18.59884 167 ft 0 kts 255°
2026-04-26 18:22 -33.97143 18.59887 113 ft 0 kts 255°
2026-04-26 18:22 -33.97141 18.59897 167 ft 3 kts 255°
2026-04-26 18:22 -33.97136 18.59918 167 ft 3 kts 255°
2026-04-26 18:23 -33.97132 18.59938 167 ft 2 kts 284°
2026-04-26 18:23 -33.97140 18.59954 167 ft 3 kts 309°
2026-04-26 18:23 -33.97153 18.59968 167 ft 2 kts 328°
2026-04-26 18:23 -33.97156 18.59971 167 ft 0 kts 333°
2026-04-26 18:25 -33.97153 18.59969 167 ft 1 kts 334°
2026-04-26 18:25 -33.97145 18.59966 167 ft 2 kts 343°
2026-04-26 18:26 -33.97132 18.59963 167 ft 2 kts 349°
2026-04-26 18:26 -33.97102 18.59958 167 ft 7 kts 358°
2026-04-26 18:26 -33.97041 18.59946 167 ft 11 kts 345°
2026-04-26 18:26 -33.96954 18.59918 167 ft 15 kts 345°
2026-04-26 18:27 -33.96854 18.59884 167 ft 15 kts 345°
2026-04-26 18:27 -33.96753 18.59852 167 ft 15 kts 345°
2026-04-26 18:27 -33.96651 18.59818 167 ft 15 kts 345°
2026-04-26 18:27 -33.96547 18.59789 167 ft 16 kts 347°
2026-04-26 18:28 -33.96440 18.59764 167 ft 16 kts 349°
2026-04-26 18:28 -33.96333 18.59741 167 ft 16 kts 351°
2026-04-26 18:28 -33.96246 18.59724 166 ft 10 kts 353°
2026-04-26 18:28 -33.96183 18.59771 161 ft 14 kts 49°
2026-04-26 18:29 -33.96117 18.59852 163 ft 10 kts 44°
2026-04-26 18:29 -33.96079 18.59898 160 ft 0 kts 45°
2026-04-26 18:29 -33.96076 18.59901 160 ft 2 kts 45°
2026-04-26 18:29 -33.96051 18.59933 158 ft 8 kts 50°
2026-04-26 18:30 -33.96031 18.60000 157 ft 9 kts 98°
2026-04-26 18:30 -33.96116 18.60050 157 ft 31 kts 167°
2026-04-26 18:30 -33.96578 18.60193 162 ft 104 kts 165°
2026-04-26 18:30 -33.97458 18.60481 286 ft 148 kts 171°
2026-04-26 18:31 -33.98440 18.60832 994 ft 147 kts 170°
2026-04-26 18:31 -33.99452 18.61172 1698 ft 152 kts 170°
2026-04-26 18:31 -34.00475 18.61506 2482 ft 156 kts 172°
2026-04-26 18:31 -34.01580 18.61847 3132 ft 177 kts 172°
2026-04-26 18:32 -34.02857 18.62263 3576 ft 205 kts 169°
2026-04-26 18:32 -34.04351 18.62759 4006 ft 236 kts 169°
2026-04-26 18:32 -34.05908 18.63530 4906 ft 254 kts 152°
2026-04-26 18:32 -34.07235 18.65003 5904 ft 270 kts 129°
2026-04-26 18:33 -34.08114 18.67066 6845 ft 284 kts 115°
2026-04-26 18:33 -34.08693 18.69395 7719 ft 296 kts 107°
2026-04-26 18:33 -34.09089 18.71864 8670 ft 303 kts 102°
2026-04-26 18:33 -34.09411 18.74405 9664 ft 310 kts 101°
2026-04-26 18:34 -34.09730 18.77007 10485 ft 321 kts 100°
2026-04-26 18:34 -34.10092 18.79767 10995 ft 343 kts 100°
2026-04-26 18:34 -34.10505 18.82653 11773 ft 354 kts 101°
2026-04-26 18:34 -34.10949 18.85568 12719 ft 360 kts 101°
2026-04-26 18:35 -34.11420 18.88559 13715 ft 366 kts 101°
2026-04-26 18:35 -34.11907 18.91605 14567 ft 374 kts 100°
2026-04-26 18:35 -34.12410 18.94730 15282 ft 385 kts 100°
2026-04-26 18:35 -34.12928 18.97945 15987 ft 395 kts 100°
2026-04-26 18:36 -34.13455 19.01233 16694 ft 404 kts 100°
2026-04-26 18:36 -34.13991 19.04598 17402 ft 412 kts 99°
2026-04-26 18:36 -34.14536 19.08036 18120 ft 421 kts 99°
2026-04-26 18:36 -34.15082 19.11490 18747 ft 429 kts 99°
2026-04-26 18:37 -34.15650 19.15091 19162 ft 445 kts 99°
2026-04-26 18:37 -34.16234 19.18810 19641 ft 455 kts 99°
2026-04-26 18:37 -34.16826 19.22585 20256 ft 461 kts 99°
2026-04-26 18:37 -34.17427 19.26420 20894 ft 468 kts 99°
2026-04-26 18:38 -34.18036 19.30305 21503 ft 474 kts 99°
2026-04-26 18:38 -34.18654 19.34253 22067 ft 482 kts 99°
2026-04-26 18:38 -34.19279 19.38256 22785 ft 486 kts 98°
2026-04-26 18:38 -34.19907 19.42293 23371 ft 493 kts 98°
2026-04-26 18:39 -34.20536 19.46345 23791 ft 502 kts 98°
2026-04-26 18:39 -34.21188 19.50519 24219 ft 508 kts 99°
2026-04-26 18:39 -34.21712 19.54750 24710 ft 509 kts 90°
2026-04-26 18:39 -34.21732 19.59029 25085 ft 512 kts 83°
2026-04-26 18:40 -34.21573 19.63343 25528 ft 516 kts 81°
2026-04-26 18:40 -34.21312 19.67680 25979 ft 519 kts 79°
2026-04-26 18:40 -34.20999 19.72041 26423 ft 524 kts 79°
2026-04-26 18:40 -34.20666 19.76441 26855 ft 528 kts 79°
2026-04-26 18:41 -34.20336 19.80825 27173 ft 533 kts 79°
2026-04-26 18:41 -34.20008 19.85293 27653 ft 536 kts 79°
2026-04-26 18:41 -34.19685 19.89788 28056 ft 540 kts 79°
2026-04-26 18:41 -34.19419 19.93537 28337 ft 544 kts 79°
2026-04-26 18:42 -34.19098 19.98100 28727 ft 548 kts 79°
2026-04-26 18:42 -34.18775 20.02710 29114 ft 552 kts 79°
2026-04-26 18:42 -34.18447 20.07355 29484 ft 556 kts 79°
2026-04-26 18:42 -34.18117 20.12015 29838 ft 561 kts 79°
2026-04-26 18:43 -34.17785 20.16731 30207 ft 564 kts 81°
2026-04-26 18:43 -34.17766 20.21481 30628 ft 568 kts 87°
2026-04-26 18:43 -34.17830 20.26199 30953 ft 571 kts 87°
2026-04-26 18:43 -34.17924 20.31014 31265 ft 574 kts 88°
2026-04-26 18:44 -34.18039 20.35837 31593 ft 576 kts 89°
2026-04-26 18:44 -34.18167 20.40674 32039 ft 576 kts 89°
2026-04-26 18:44 -34.18297 20.45501 32509 ft 574 kts 89°
2026-04-26 18:44 -34.18425 20.50318 32898 ft 574 kts 89°
2026-04-26 18:45 -34.18549 20.55138 33262 ft 575 kts 89°
2026-04-26 18:45 -34.18668 20.59962 33631 ft 575 kts 89°
2026-04-26 18:45 -34.18785 20.64788 34022 ft 575 kts 89°
2026-04-26 18:45 -34.18898 20.69619 34350 ft 575 kts 89°
2026-04-26 18:46 -34.19009 20.74443 34663 ft 575 kts 89°
2026-04-26 18:46 -34.19118 20.79266 35019 ft 575 kts 89°
2026-04-26 18:46 -34.19225 20.84083 35381 ft 572 kts 89°
2026-04-26 18:46 -34.19329 20.88818 35682 ft 571 kts 89°
2026-04-26 18:47 -34.19431 20.93613 35947 ft 572 kts 89°
2026-04-26 18:47 -34.19532 20.98419 36203 ft 572 kts 89°
2026-04-26 18:47 -34.19631 21.03215 36465 ft 572 kts 89°
2026-04-26 18:47 -34.19728 21.08025 36716 ft 572 kts 89°
2026-04-26 18:48 -34.19823 21.12823 36942 ft 573 kts 89°
2026-04-26 18:48 -34.19917 21.17640 36991 ft 573 kts 88°
2026-04-26 18:48 -34.20099 21.27261 37001 ft 573 kts 88°
2026-04-26 18:49 -34.20272 21.36815 36996 ft 573 kts 88°
2026-04-26 18:49 -34.20439 21.46429 36996 ft 572 kts 88°
2026-04-26 18:50 -34.20597 21.56041 36990 ft 572 kts 88°
2026-04-26 18:50 -34.20748 21.65656 36992 ft 572 kts 88°
2026-04-26 18:51 -34.20891 21.75206 36991 ft 572 kts 88°
2026-04-26 18:51 -34.21027 21.84820 36976 ft 573 kts 88°
2026-04-26 18:52 -34.21134 21.92823 36988 ft 574 kts 88°
2026-04-26 18:52 -34.21277 22.04091 37019 ft 574 kts 88°
2026-04-26 18:53 -34.21392 22.13691 36946 ft 570 kts 88°
2026-04-26 18:53 -34.21497 22.23263 36973 ft 572 kts 87°
2026-04-26 18:54 -34.21594 22.32817 36971 ft 572 kts 87°
2026-04-26 18:54 -34.21686 22.42434 36971 ft 572 kts 87°
2026-04-26 18:55 -34.21769 22.52050 36974 ft 573 kts 87°
2026-04-26 18:55 -34.21844 22.61696 36974 ft 575 kts 87°
2026-04-26 18:56 -34.21913 22.71288 36980 ft 575 kts 87°
2026-04-26 18:56 -34.21975 22.80943 36943 ft 574 kts 87°
2026-04-26 18:57 -34.22020 22.88967 36975 ft 575 kts 87°
2026-04-26 18:57 -34.22074 23.00259 36976 ft 575 kts 87°
2026-04-26 18:58 -34.22113 23.09910 36981 ft 575 kts 87°
2026-04-26 18:58 -34.22143 23.19499 36977 ft 574 kts 86°
2026-04-26 18:59 -34.22167 23.29145 36974 ft 574 kts 86°
2026-04-26 18:59 -34.22182 23.38780 36974 ft 574 kts 86°
2026-04-26 19:00 -34.22190 23.48425 36959 ft 574 kts 86°
2026-04-26 19:00 -34.22192 23.53246 36767 ft 573 kts 86°
2026-04-26 19:00 -34.22191 23.58001 36528 ft 574 kts 86°
2026-04-26 19:01 -34.22188 23.62829 36290 ft 575 kts 86°
2026-04-26 19:01 -34.22184 23.67664 36051 ft 576 kts 86°
2026-04-26 19:01 -34.22177 23.72496 35816 ft 576 kts 86°
2026-04-26 19:01 -34.22169 23.77341 35518 ft 576 kts 86°
2026-04-26 19:02 -34.22159 23.82182 35278 ft 577 kts 86°
2026-04-26 19:02 -34.22147 23.87029 35062 ft 577 kts 86°
2026-04-26 19:02 -34.22133 23.91873 34824 ft 577 kts 86°
2026-04-26 19:02 -34.22123 23.95081 34675 ft 577 kts 86°
2026-04-26 19:03 -34.22100 24.01571 34378 ft 577 kts 86°
2026-04-26 19:03 -34.22081 24.06422 34151 ft 576 kts 86°
2026-04-26 19:03 -34.22060 24.11191 33880 ft 575 kts 86°
2026-04-26 19:03 -34.22038 24.16009 33614 ft 572 kts 86°
2026-04-26 19:04 -34.22014 24.20796 33366 ft 569 kts 86°
2026-04-26 19:04 -34.21988 24.25556 33099 ft 565 kts 86°
2026-04-26 19:04 -34.21960 24.30287 32843 ft 561 kts 86°
2026-04-26 19:04 -34.21931 24.34977 32591 ft 557 kts 85°
2026-04-26 19:05 -34.21867 24.44275 31816 ft 552 kts 85°
2026-04-26 19:05 -34.21829 24.48935 30968 ft 558 kts 85°
2026-04-26 19:05 -34.21791 24.53540 30533 ft 552 kts 85°
2026-04-26 19:06 -34.21757 24.58113 30148 ft 538 kts 85°
2026-04-26 19:06 -34.21687 24.62598 29333 ft 529 kts 80°
2026-04-26 19:06 -34.21087 24.66903 28539 ft 514 kts 71°
2026-04-26 19:06 -34.20275 24.71064 27778 ft 504 kts 67°
2026-04-26 19:07 -34.19355 24.75113 27044 ft 496 kts 66°
2026-04-26 19:07 -34.18401 24.79076 26336 ft 488 kts 65°
2026-04-26 19:07 -34.17460 24.82938 25654 ft 482 kts 65°
2026-04-26 19:07 -34.16525 24.86806 24963 ft 476 kts 65°
2026-04-26 19:08 -34.15618 24.90621 24295 ft 471 kts 65°
2026-04-26 19:08 -34.14730 24.94402 23638 ft 465 kts 65°
2026-04-26 19:08 -34.13863 24.98133 22928 ft 458 kts 65°
2026-04-26 19:08 -34.13012 25.01816 22173 ft 451 kts 66°
2026-04-26 19:09 -34.12180 25.05425 21491 ft 444 kts 65°
2026-04-26 19:09 -34.11357 25.08989 20792 ft 437 kts 65°
2026-04-26 19:09 -34.10556 25.12450 20111 ft 431 kts 65°
2026-04-26 19:09 -34.09754 25.15907 19433 ft 424 kts 64°
2026-04-26 19:10 -34.08964 25.19306 18776 ft 418 kts 64°
2026-04-26 19:10 -34.08184 25.22652 18112 ft 412 kts 64°
2026-04-26 19:10 -34.07413 25.25954 17360 ft 406 kts 64°
2026-04-26 19:10 -34.06652 25.29206 16631 ft 400 kts 64°
2026-04-26 19:11 -34.05901 25.32409 15873 ft 395 kts 64°
2026-04-26 19:11 -34.05160 25.35568 15166 ft 389 kts 65°
2026-04-26 19:11 -34.04437 25.38643 14483 ft 384 kts 65°
2026-04-26 19:11 -34.03713 25.41720 13798 ft 379 kts 65°
2026-04-26 19:12 -34.02998 25.44756 13046 ft 374 kts 65°
2026-04-26 19:12 -34.02301 25.47723 12584 ft 361 kts 66°
2026-04-26 19:12 -34.01639 25.50569 12262 ft 345 kts 66°
2026-04-26 19:12 -34.00998 25.53312 11758 ft 337 kts 65°
2026-04-26 19:13 -34.00358 25.56012 11165 ft 333 kts 65°
2026-04-26 19:13 -33.99722 25.58667 10605 ft 328 kts 64°
2026-04-26 19:13 -33.98987 25.61233 10045 ft 322 kts 63°
2026-04-26 19:13 -33.98295 25.63746 9482 ft 318 kts 64°
2026-04-26 19:14 -33.97600 25.66260 8884 ft 314 kts 64°
2026-04-26 19:14 -33.96897 25.68728 8299 ft 309 kts 64°
2026-04-26 19:14 -33.96182 25.71147 7732 ft 304 kts 64°
2026-04-26 19:14 -33.95704 25.72723 7357 ft 300 kts 64°
2026-04-26 19:15 -33.94728 25.75837 6633 ft 294 kts 64°
2026-04-26 19:15 -33.93883 25.78052 6069 ft 288 kts 59°
2026-04-26 19:15 -33.92949 25.80156 5496 ft 283 kts 58°
2026-04-26 19:15 -33.91990 25.82243 4757 ft 287 kts 59°
2026-04-26 19:16 -33.90982 25.84274 4136 ft 285 kts 58°
2026-04-26 19:16 -33.89942 25.86309 3467 ft 285 kts 58°
2026-04-26 19:16 -33.88826 25.88269 2917 ft 283 kts 47°
2026-04-26 19:16 -33.87219 25.89550 2565 ft 276 kts 17°
2026-04-26 19:17 -33.85351 25.89757 2506 ft 270 kts 347°
2026-04-26 19:17 -33.83695 25.88929 2488 ft 244 kts 316°
2026-04-26 19:17 -33.82753 25.87436 2486 ft 212 kts 284°
2026-04-26 19:17 -33.82492 25.85771 2512 ft 196 kts 264°
2026-04-26 19:18 -33.82929 25.84326 2505 ft 187 kts 229°
2026-04-26 19:18 -33.84004 25.83460 2506 ft 189 kts 205°
2026-04-26 19:18 -33.85242 25.82918 2500 ft 185 kts 200°
2026-04-26 19:18 -33.86411 25.82449 2484 ft 171 kts 204°
2026-04-26 19:19 -33.87470 25.81838 2497 ft 169 kts 211°
2026-04-26 19:19 -33.88381 25.80963 2503 ft 168 kts 226°
2026-04-26 19:19 -33.89100 25.79845 2497 ft 170 kts 234°
2026-04-26 19:19 -33.89713 25.78692 2481 ft 156 kts 237°
2026-04-26 19:20 -33.90261 25.77627 2485 ft 150 kts 236°
2026-04-26 19:20 -33.90631 25.76910 2494 ft 149 kts 236°
2026-04-26 19:20 -33.91362 25.75504 2498 ft 149 kts 236°
2026-04-26 19:20 -33.91912 25.74448 2492 ft 149 kts 236°
2026-04-26 19:21 -33.92458 25.73394 2399 ft 148 kts 236°
2026-04-26 19:21 -33.93002 25.72344 2202 ft 147 kts 239°
2026-04-26 19:21 -33.93534 25.71313 2012 ft 142 kts 238°
2026-04-26 19:21 -33.94052 25.70314 1806 ft 138 kts 240°
2026-04-26 19:22 -33.94524 25.69399 1631 ft 123 kts 238°
2026-04-26 19:22 -33.94952 25.68573 1462 ft 113 kts 240°
2026-04-26 19:22 -33.95364 25.67773 1324 ft 113 kts 238°
2026-04-26 19:22 -33.95778 25.66975 1182 ft 112 kts 239°
2026-04-26 19:23 -33.96188 25.66181 1023 ft 112 kts 240°
2026-04-26 19:23 -33.96603 25.65376 867 ft 113 kts 239°
2026-04-26 19:23 -33.97012 25.64568 754 ft 113 kts 239°
2026-04-26 19:23 -33.97427 25.63772 612 ft 112 kts 239°
2026-04-26 19:24 -33.97835 25.62983 444 ft 109 kts 241°
2026-04-26 19:24 -33.98237 25.62199 293 ft 112 kts 238°
2026-04-26 19:24 -33.98960 25.60808 208 ft 75 kts 238°
2026-04-26 19:25 -33.99193 25.60362 205 ft 46 kts 238°
2026-04-26 19:25 -33.99261 25.60230 207 ft 20 kts 238°
2026-04-26 19:25 -33.99235 25.60137 212 ft 9 kts 329°
2026-04-26 19:25 -33.99175 25.60095 202 ft 11 kts 334°
2026-04-26 19:26 -33.99109 25.60113 211 ft 11 kts 53°
2026-04-26 19:26 -33.99066 25.60197 206 ft 12 kts 58°
2026-04-26 19:26 -33.99016 25.60288 212 ft 14 kts 57°
2026-04-26 19:26 -33.98963 25.60387 207 ft 15 kts 57°
2026-04-26 19:27 -33.98904 25.60497 213 ft 16 kts 57°
2026-04-26 19:27 -33.98840 25.60617 210 ft 18 kts 57°
2026-04-26 19:27 -33.98770 25.60744 211 ft 19 kts 57°
2026-04-26 19:27 -33.98697 25.60882 208 ft 20 kts 57°
2026-04-26 19:28 -33.98615 25.61024 209 ft 21 kts 55°
2026-04-26 19:28 -33.98543 25.61157 211 ft 8 kts 49°
2026-04-26 19:28 -33.98501 25.61149 208 ft 7 kts 329°
2026-04-26 19:28 -33.98491 25.61142 208 ft 0 kts 329°